Volver al catálogo

SL-8 DEB

ActivoLEO
NORAD 19048·DEBRIS·🇷🇺 Russia

Lanzado Apr 5, 1988 desde Plesetsk Cosmodrome

Loading…

Próximos Pases (próximas 24 horas)

TLE

ActualizadoSource: Space-Track

Época: Sep 14, 2026, 11:18 UTC

1 19048U 88029C   26257.47089551  .00002089  00000-0  30350-3 0  9993
2 19048  74.0140 261.7882 0010782 289.9774 228.6417 14.76627892 36784

Sigue SL-8 DEB en tiempo real con AllMySat

Download on the App Store